Weather History for Blytheville Muni Airport, AR

Change the Weather History Date:

Monday, October 8, 2012

  Actual Average Record
Temperature  
Mean Temperature 54 °F -  
Max Temperature 62 °F 74 °F 91 °F (2007)
Min Temperature 46 °F 52 °F 32 °F (2000)
Degree Days  
Heating Degree Days 12    
Growing Degree Days 4 (Base 50)    
Moisture  
Dew Point 39 °F    
Average Humidity 61    
Maximum Humidity 83    
Minimum Humidity 38    
Precipitation  
Precipitation 0.00 in - - ()
Sea Level Pressure  
Sea Level Pressure 30.20 in    
Wind  
Wind Speed 2 mph (SW)    
Max Wind Speed 8 mph    
Max Gust Speed -    
Visibility 10 miles    
Events      
Averages and records for this station are not official NWS values.
T = Trace of Precipitation, MM = Missing Value Source: NWS Daily Summary

Daily Weather History Graph

Daily Weather History Graph

Search for Another Location

Airport:

Trip Planner

Search our weather history database for the weather conditions in past years. The results will help you decide how hot, cold, wet, or windy it might be!

Date:

Astronomy

Oct. 08, 2012 Rise Set
Actual Time 7:00 AM CDT 6:32 PM CDT
Civil Twilight 6:34 AM CDT 6:57 PM CDT
Nautical Twilight 6:05 AM CDT 7:27 PM CDT
Astronomical Twilight 5:35 AM CDT 7:57 PM CDT
Moon No Moon Rise 2:10 PM CDT (10/8)
Length of Visible Light 12h 23m
Length of Day
11h 31m
Last Quarter, 46% of the Moon is Illuminated
Oct 8
Last Quarter
Oct 15
New
Oct 21
First Quarter
Oct 29
Full
Nov 6
Last Quarter

Hourly Weather History & Observations

Time (CDT) Temp. Windchill Dew Point Humidity Pressure Visibility Wind Dir Wind Speed Gust Speed Precip Events Conditions
12:53 AM 50.0 °F - 42.1 °F 74% 30.21 in 10.0 mi Calm Calm - N/A   Overcast
1:53 AM 50.0 °F - 42.1 °F 74% 30.21 in 10.0 mi Calm Calm - N/A   Overcast
2:53 AM 50.0 °F - 39.9 °F 68% 30.22 in 10.0 mi East 3.5 mph - N/A   Overcast
3:53 AM 48.0 °F - 43.0 °F 83% 30.21 in 10.0 mi Calm Calm - N/A   Overcast
4:53 AM 48.0 °F - 41.0 °F 77% 30.22 in 10.0 mi Calm Calm - 0.00 in   Overcast
5:53 AM 48.0 °F - 43.0 °F 83% 30.24 in 10.0 mi North 3.5 mph - N/A   Overcast
6:53 AM 46.9 °F - 41.0 °F 80% 30.24 in 10.0 mi North 5.8 mph - N/A   Overcast
7:53 AM 48.0 °F - 43.0 °F 83% 30.25 in 10.0 mi North 3.5 mph - N/A   Mostly Cloudy
8:53 AM 52.0 °F - 39.9 °F 63% 30.25 in 10.0 mi NE 4.6 mph - N/A   Overcast
9:53 AM 55.0 °F - 36.0 °F 49% 30.27 in 10.0 mi Calm Calm - N/A   Overcast
10:53 AM 57.0 °F - 35.1 °F 44% 30.27 in 10.0 mi Calm Calm - N/A   Clear
11:53 AM 60.1 °F - 35.1 °F 39% 30.24 in 10.0 mi ENE 4.6 mph - N/A   Clear
12:53 PM 59.0 °F - 34.0 °F 39% 30.22 in 10.0 mi Calm Calm - N/A   Scattered Clouds
1:53 PM 61.0 °F - 35.1 °F 38% 30.19 in 10.0 mi Variable 3.5 mph - N/A   Overcast
2:53 PM 61.0 °F - 36.0 °F 39% 30.16 in 10.0 mi SSW 8.1 mph - N/A   Partly Cloudy
3:53 PM 61.0 °F - 36.0 °F 39% 30.16 in 10.0 mi Variable 3.5 mph - N/A   Partly Cloudy
4:53 PM 61.0 °F - 36.0 °F 39% 30.14 in 10.0 mi Variable 4.6 mph - N/A   Clear
5:53 PM 59.0 °F - 37.0 °F 44% 30.14 in 10.0 mi WSW 3.5 mph - N/A   Unknown
6:53 PM 55.0 °F - 37.9 °F 53% 30.13 in 10.0 mi Calm Calm - N/A   Clear
7:53 PM 53.1 °F - 39.9 °F 61% 30.14 in 10.0 mi SW 3.5 mph - N/A   Clear
8:53 PM 50.0 °F - 41.0 °F 71% 30.15 in 10.0 mi SW 4.6 mph - N/A   Clear
9:53 PM 51.1 °F - 41.0 °F 68% 30.15 in 10.0 mi SSW 4.6 mph - N/A   Clear
10:53 PM 48.9 °F - 41.0 °F 74% 30.14 in 10.0 mi SSW 3.5 mph - N/A   Clear
11:53 PM 46.0 °F 43.9 °F 39.9 °F 79% 30.14 in 10.0 mi SSW 4.6 mph - N/A   Clear